When you browse on this site, cookies collect data to enhance your experience and personalize the content and advertising you see.
Visit our Privacy Policy to learn more. By continuing to use the site, you agree to this use of cookies and data.
  • In Hungary
  • List of Countries
  • For 7 days
  • Water Temperature
  • Satellite Maps
  • Weather Map
  • News
  • Weather Widgets
  • user-avatar
    Login

    Hourly Weather Waldshut-Tiengen

    Today, 23 February, Saturday

    Time Temperature Precipitation Wind Pressure Humidity
    00:00 +5°C° 0 mm 3 mps 744 mmHg 93%
    01:00 +5°C° 0 mm 4 mps 744 mmHg 94%
    02:00 +5°C° 0 mm 4 mps 744 mmHg 94%
    03:00 +4°C° 0 mm 3 mps 744 mmHg 94%
    04:00 +4°C° 0 mm 3 mps 744 mmHg 94%
    05:00 +3°C° 0 mm 3 mps 744 mmHg 93%
    06:00 +3°C° 0 mm 3 mps 743 mmHg 92%
    07:00 +2°C° 0 mm 3 mps 744 mmHg 90%
    08:00 +3°C° 0 mm 3 mps 744 mmHg 85%
    09:00 +4°C° 0 mm 3 mps 743 mmHg 80%
    10:00 +4°C° 0 mm 4 mps 743 mmHg 75%
    11:00 +6°C° 0 mm 4 mps 743 mmHg 65%
    12:00 +8°C° 0 mm 5 mps 743 mmHg 55%
    13:00 +9°C° 0 mm 5 mps 742 mmHg 45%
    14:00 +9°C° 0 mm 5 mps 742 mmHg 43%
    15:00 +9°C° 0 mm 5 mps 742 mmHg 40%
    16:00 +9°C° 0 mm 5 mps 741 mmHg 37%
    17:00 +7°C° 0 mm 4 mps 742 mmHg 40%
    18:00 +5°C° 0 mm 4 mps 742 mmHg 44%
    19:00 +4°C° 0 mm 3 mps 742 mmHg 47%
    20:00 +3°C° 0 mm 3 mps 742 mmHg 47%
    21:00 +2°C° 0 mm 3 mps 742 mmHg 47%
    22:00 +2°C° 0 mm 3 mps 743 mmHg 48%
    23:00 +2°C° 0 mm 2 mps 743 mmHg 49%

    Tomorrow, 24 February, Sunday

    Time Temperature Precipitation Wind Pressure Humidity
    00:00 +2°C° 0 mm 2 mps 743 mmHg 49%
    01:00 +1°C° 0 mm 2 mps 743 mmHg 50%
    02:00 +1°C° 0 mm 2 mps 743 mmHg 50%
    03:00 +2°C° 0 mm 1 mps 743 mmHg 50%
    04:00 +2°C° 0 mm 1 mps 743 mmHg 50%
    05:00 +1°C° 0 mm 1 mps 743 mmHg 50%
    06:00 +1°C° 0 mm 1 mps 743 mmHg 49%
    07:00 +1°C° 0 mm 1 mps 743 mmHg 49%
    08:00 +3°C° 0 mm 1 mps 744 mmHg 45%
    09:00 +5°C° 0 mm 1 mps 744 mmHg 42%
    10:00 +7°C° 0 mm 1 mps 744 mmHg 38%
    11:00 +8°C° 0 mm 1 mps 744 mmHg 36%
    12:00 +10°C° 0 mm 1 mps 744 mmHg 35%
    13:00 +12°C° 0 mm 2 mps 744 mmHg 34%
    14:00 +12°C° 0 mm 2 mps 744 mmHg 36%
    15:00 +12°C° 0 mm 2 mps 744 mmHg 39%
    16:00 +12°C° 0 mm 2 mps 744 mmHg 42%
    17:00 +9°C° 0 mm 2 mps 744 mmHg 48%
    18:00 +7°C° 0 mm 2 mps 744 mmHg 54%
    19:00 +5°C° 0 mm 2 mps 744 mmHg 61%
    20:00 +5°C° 0 mm 2 mps 744 mmHg 60%
    21:00 +4°C° 0 mm 2 mps 744 mmHg 60%
    22:00 +3°C° 0 mm 2 mps 744 mmHg 60%
    23:00 +3°C° 0 mm 2 mps 744 mmHg 61%

    Day after tomorrow, 25 February, Monday

    Time Temperature Precipitation Wind Pressure Humidity
    00:00 +3°C° 0 mm 2 mps 744 mmHg 62%
    01:00 +3°C° 0 mm 2 mps 744 mmHg 64%
    02:00 +3°C° 0 mm 2 mps 744 mmHg 66%
    03:00 +3°C° 0 mm 2 mps 744 mmHg 67%
    04:00 +2°C° 0 mm 2 mps 744 mmHg 69%
    05:00 +3°C° 0 mm 2 mps 744 mmHg 71%
    06:00 +4°C° 0 mm 1 mps 744 mmHg 73%
    07:00 +4°C° 0 mm 1 mps 744 mmHg 75%
    08:00 +4°C° 0 mm 2 mps 744 mmHg 71%
    09:00 +6°C° 0 mm 2 mps 744 mmHg 66%
    10:00 +7°C° 0 mm 2 mps 744 mmHg 62%
    11:00 +9°C° 0 mm 2 mps 744 mmHg 60%
    12:00 +11°C° 0 mm 3 mps 744 mmHg 57%
    13:00 +13°C° 0 mm 3 mps 744 mmHg 54%
    14:00 +13°C° 0 mm 3 mps 744 mmHg 55%
    15:00 +13°C° 0 mm 3 mps 744 mmHg 56%
    16:00 +14°C° 0 mm 3 mps 744 mmHg 57%
    17:00 +12°C° 0 mm 3 mps 744 mmHg 65%
    18:00 +10°C° 0 mm 2 mps 744 mmHg 73%
    19:00 +7°C° 0 mm 2 mps 744 mmHg 81%
    20:00 +7°C° 0 mm 2 mps 744 mmHg 82%
    21:00 +6°C° 0 mm 2 mps 744 mmHg 84%
    22:00 +6°C° 0 mm 2 mps 744 mmHg 85%
    23:00 +6°C° 0 mm 1 mps 744 mmHg 86%

    26 February, Tuesday

    Time Temperature Precipitation Wind Pressure Humidity
    00:00 +6°C° 0 mm 1 mps 744 mmHg 88%
    01:00 +5°C° 0 mm 1 mps 744 mmHg 89%
    02:00 +5°C° 0 mm 1 mps 744 mmHg 90%
    03:00 +5°C° 0 mm 1 mps 744 mmHg 91%
    04:00 +5°C° 0 mm 1 mps 744 mmHg 92%
    05:00 +4°C° 0 mm 1 mps 743 mmHg 91%
    06:00 +4°C° 0 mm 1 mps 743 mmHg 91%
    07:00 +4°C° 0 mm 1 mps 743 mmHg 91%
    08:00 +6°C° 0 mm 1 mps 743 mmHg 83%
    09:00 +8°C° 0 mm 1 mps 743 mmHg 75%
    10:00 +10°C° 0 mm 1 mps 743 mmHg 67%
    11:00 +12°C° 0 mm 1 mps 743 mmHg 60%
    12:00 +13°C° 0 mm 1 mps 743 mmHg 53%
    13:00 +15°C° 0 mm 2 mps 743 mmHg 47%
    14:00 +15°C° 0 mm 2 mps 743 mmHg 48%
    15:00 +16°C° 0 mm 2 mps 742 mmHg 48%
    16:00 +16°C° 0 mm 2 mps 742 mmHg 49%
    17:00 +14°C° 0 mm 2 mps 742 mmHg 58%
    18:00 +12°C° 0 mm 1 mps 742 mmHg 67%
    19:00 +9°C° 0 mm 1 mps 742 mmHg 76%
    20:00 +9°C° 0 mm 1 mps 742 mmHg 77%
    21:00 +8°C° 0 mm 1 mps 742 mmHg 79%
    22:00 +7°C° 0 mm 1 mps 742 mmHg 80%
    23:00 +7°C° 0 mm 1 mps 742 mmHg 80%

    27 February, Wednesday

    Time Temperature Precipitation Wind Pressure Humidity
    00:00 +7°C° 0 mm 1 mps 742 mmHg 80%
    01:00 +6°C° 0 mm 1 mps 741 mmHg 80%
    02:00 +6°C° 0 mm 1 mps 741 mmHg 80%
    03:00 +6°C° 0 mm 1 mps 741 mmHg 80%
    04:00 +6°C° 0 mm 1 mps 740 mmHg 81%
    05:00 +5°C° 0 mm 1 mps 740 mmHg 81%
    06:00 +5°C° 0 mm 1 mps 740 mmHg 81%
    07:00 +5°C° 0 mm 1 mps 740 mmHg 82%
    08:00 +7°C° 0 mm 1 mps 740 mmHg 74%
    09:00 +9°C° 0 mm 1 mps 740 mmHg 67%
    10:00 +10°C° 0 mm 0 mps 740 mmHg 59%
    11:00 +12°C° 0 mm 0 mps 740 mmHg 54%
    12:00 +14°C° 0 mm 0 mps 740 mmHg 49%
    13:00 +16°C° 0 mm 0 mps 740 mmHg 44%
    14:00 +16°C° 0 mm 0 mps 739 mmHg 46%
    15:00 +16°C° 0 mm 0 mps 739 mmHg 47%
    16:00 +18°C° 0 mm 1 mps 739 mmHg 48%
    17:00 +15°C° 0 mm 1 mps 739 mmHg 56%
    18:00 +12°C° 0 mm 1 mps 739 mmHg 64%
    19:00 +9°C° 0 mm 0 mps 739 mmHg 72%
    20:00 +9°C° 0 mm 0 mps 739 mmHg 74%
    21:00 +9°C° 0 mm 1 mps 739 mmHg 76%
    22:00 +9°C° 0 mm 1 mps 739 mmHg 78%
    23:00 +8°C° 0 mm 1 mps 739 mmHg 80%

    28 February, Thursday

    Time Temperature Precipitation Wind Pressure Humidity
    00:00 +8°C° 0 mm 1 mps 739 mmHg 82%
    01:00 +7°C° 0 mm 1 mps 739 mmHg 84%
    02:00 +7°C° 0 mm 1 mps 739 mmHg 85%
    03:00 +7°C° 0 mm 1 mps 738 mmHg 86%
    04:00 +6°C° 0 mm 1 mps 738 mmHg 87%
    05:00 +6°C° 0 mm 1 mps 738 mmHg 87%
    06:00 +6°C° 0 mm 1 mps 738 mmHg 87%
    07:00 +6°C° 0 mm 1 mps 738 mmHg 87%
    08:00 +8°C° 0 mm 1 mps 738 mmHg 81%
    09:00 +10°C° 0 mm 1 mps 738 mmHg 74%
    10:00 +12°C° 0 mm 2 mps 739 mmHg 68%
    11:00 +13°C° 0 mm 2 mps 738 mmHg 65%
    12:00 +14°C° 0 mm 3 mps 738 mmHg 62%
    13:00 +16°C° 0 mm 3 mps 738 mmHg 59%
    14:00 +16°C° 0 mm 3 mps 738 mmHg 59%
    15:00 +16°C° 0 mm 3 mps 738 mmHg 58%
    16:00 +15°C° 0 mm 4 mps 737 mmHg 58%
    17:00 +13°C° 0 mm 3 mps 738 mmHg 67%
    18:00 +12°C° 0 mm 2 mps 738 mmHg 77%
    19:00 +10°C° 0 mm 1 mps 739 mmHg 86%
    20:00 +9°C° 0 mm 1 mps 739 mmHg 88%
    21:00 +9°C° 0 mm 1 mps 739 mmHg 91%
    22:00 +8°C° 0 mm 1 mps 739 mmHg 94%
    23:00 +8°C° 0 mm 1 mps 739 mmHg 94%
    Show more